Location: Unspecified
(0.0000°N, 0.0000°E)
Time: 23:11:39
(UTC+00:00)

M-CUBED/EXP-1 PRIME - Visible Passes

Search period start: 19 January 2018 00:00
Search period end: 29 January 2018 00:00
Orbit: 431 x 678 km, 101.7° (Epoch: 18 January)

Date Brightness Start Highest point End Pass type
(mag) Time Alt. Az. Time Alt. Az. Time Alt. Az.
19 Jan ? 04:19:14 10° S 04:19:14 10° S 04:19:18 10° S visible
20 Jan ? 04:15:50 13° S 04:15:50 13° S 04:16:15 10° S visible
21 Jan ? 04:12:25 15° SSE 04:12:25 15° SSE 04:13:11 10° S visible
22 Jan ? 04:08:58 17° SSE 04:08:58 17° SSE 04:10:04 10° SSE visible
23 Jan ? 04:05:28 18° SE 04:05:28 18° SE 04:06:55 10° SSE visible
24 Jan ? 04:01:55 18° ESE 04:01:55 18° ESE 04:03:42 10° SSE visible
25 Jan ? 03:58:18 16° ESE 03:58:18 16° ESE 04:00:25 10° SE visible
26 Jan ? 03:54:36 13° E 03:55:18 13° ESE 03:57:01 10° SE visible
26 Jan ? 05:30:21 12° W 05:30:21 12° W 05:31:09 10° WSW visible
27 Jan ? 03:51:19 10° E 03:52:20 11° ESE 03:53:24 10° SE visible
27 Jan ? 05:26:31 16° WNW 05:26:31 16° WNW 05:28:41 10° WSW visible
28 Jan ? 05:22:30 17° NW 05:23:29 20° WNW 05:26:05 10° SW visible
